Location: ????????
(55.0559°N, 39.1270°E)
Time: 01:32:05
(UTC+00:00)

NOSS 2-2 (C) - Pass Details

Date: 15 November 2025
Orbit: 381 x 1697 km, 63.3° (Epoch: 12 December)

Event Time Altitude Azimuth Distance (km) Brightness Sun altitude
Exits shadow 02:51:41 39° 297° (WNW) 799 3.6 -17.4°
Maximum altitude 02:53:01 73° 223° (SW) 586 3.3 -17.2°
Drops below altitude 10° 02:57:47 10° 138° (SE) 2,182 7.1 -16.5°
Sets 03:00:34 0° 137° (SE) 3,326 8.2 -16.2°
